This demonstration page uses our WeatherBlox Daily Observations layout. Learn more.

Left ArrowRight Arrow

Hourly Observations for December 29, 2017

Temp ( °F °C ) Dew Point ( °F °C ) Humidity (%) Winds ( mph kmh ) Pressure ( in mb ) Visibility ( mi km ) Precip ( " mm )
12:15 am 00:15 Mostly Cloudy 12 -11 9 -13 85 85 N N/A 30.53 1034 10 16 N/A
12:35 am 00:35 Cloudy 14 -10 10 -12 85 85 N N/A 30.53 1034 10 16 N/A
12:55 am 00:55 Cloudy 16 -9 12 -11 86 86 N N/A 30.50 1033 10 16 N/A
1:15 am 01:15 Cloudy 16 -9 10 -12 79 79 N N/A 30.50 1033 10 16 N/A
1:35 am 01:35 Cloudy 18 -8 12 -11 79 79 N N/A 30.50 1033 10 16 N/A
1:55 am 01:55 Cloudy 18 -8 10 -12 73 73 N N/A 30.48 1032 10 16 N/A
2:15 am 02:15 Cloudy 18 -8 12 -11 79 79 N N/A 30.48 1032 10 16 N/A
2:35 am 02:35 Cloudy 19 -7 12 -11 73 73 N N/A 30.48 1032 10 16 N/A
2:55 am 02:55 Cloudy 19 -7 12 -11 73 73 N N/A 30.48 1032 10 16 N/A
3:15 am 03:15 Cloudy 19 -7 12 -11 73 73 N N/A 30.45 1031 10 16 N/A
3:35 am 03:35 Cloudy 19 -7 12 -11 73 73 N N/A 30.45 1031 10 16 N/A
3:55 am 03:55 Cloudy 19 -7 12 -11 73 73 N N/A 30.45 1031 10 16 N/A
4:15 am 04:15 Cloudy 19 -7 10 -12 68 68 N N/A 30.42 1030 10 16 N/A
4:35 am 04:35 Cloudy 19 -7 10 -12 68 68 N N/A 30.42 1030 10 16 N/A
4:55 am 04:55 Cloudy 19 -7 10 -12 68 68 N N/A 30.42 1030 10 16 N/A
5:15 am 05:15 Cloudy 19 -7 10 -12 68 68 N N/A 30.42 1030 10 16 N/A
5:35 am 05:35 Cloudy 19 -7 10 -12 68 68 N N/A 30.42 1030 10 16 N/A
5:55 am 05:55 Cloudy 19 -7 10 -12 68 68 SSE 3 6 30.39 1029 10 16 N/A
6:15 am 06:15 Cloudy 19 -7 10 -12 68 68 N N/A 30.39 1029 10 16 N/A
6:35 am 06:35 Cloudy 19 -7 12 -11 73 73 N N/A 30.42 1030 10 16 N/A
6:55 am 06:55 Partly Cloudy 19 -7 10 -12 68 68 N N/A 30.39 1029 10 16 N/A
7:15 am 07:15 Clear 19 -7 10 -12 68 68 N N/A 30.42 1030 10 16 N/A
7:35 am 07:35 Sunny 18 -8 10 -12 73 73 N N/A 30.39 1029 10 16 N/A
7:55 am 07:55 Sunny 19 -7 9 -13 63 63 SSE 3 6 30.39 1029 10 16 N/A
8:15 am 08:15 Sunny 19 -7 10 -12 68 68 S 3 6 30.39 1029 10 16 N/A
8:35 am 08:35 Partly Cloudy 19 -7 12 -11 73 73 N N/A 30.39 1029 10 16 N/A
8:55 am 08:55 Cloudy 21 -6 12 -11 68 68 N N/A 30.42 1030 10 16 N/A
9:15 am 09:15 Cloudy 21 -6 12 -11 68 68 SSW 6 9 30.39 1029 10 16 N/A
9:35 am 09:35 Cloudy 21 -6 10 -12 63 63 SW 5 7 30.42 1030 10 16 N/A
9:55 am 09:55 Cloudy 21 -6 10 -12 63 63 SW 3 6 30.42 1030 10 16 N/A
10:15 am 10:15 Cloudy 23 -5 12 -11 63 63 N N/A 30.36 1028 10 16 N/A
10:35 am 10:35 Cloudy 23 -5 10 -12 58 58 W 5 7 30.36 1028 10 16 N/A
10:55 am 10:55 Cloudy 23 -5 10 -12 58 58 W 5 7 30.36 1028 10 16 N/A
11:15 am 11:15 Cloudy 23 -5 10 -12 58 58 N N/A 30.36 1028 10 16 N/A
11:35 am 11:35 Cloudy 25 -4 10 -12 54 54 W 5 7 30.36 1028 10 16 N/A
11:55 am 11:55 Cloudy 27 -3 10 -12 50 50 WNW 3 6 30.33 1027 10 16 N/A
12:15 pm 12:15 Cloudy 28 -2 10 -12 47 47 WNW 6 9 30.30 1026 10 16 N/A
12:35 pm 12:35 Cloudy 28 -2 10 -12 47 47 WNW 6 9 30.30 1026 10 16 N/A
12:55 pm 12:55 Cloudy 28 -2 10 -12 47 47 NW 7 11 30.30 1026 10 16 N/A
1:15 pm 13:15 Cloudy 28 -2 10 -12 47 47 NW 6 9 30.30 1026 10 16 N/A
1:35 pm 13:35 Cloudy 30 -1 10 -12 43 43 NW 9 15 30.30 1026 10 16 N/A
1:55 pm 13:55 Cloudy 32 undefined 10 -12 40 40 NW 16 26 30.30 1026 10 16 N/A
2:15 pm 14:15 Mostly Cloudy 32 undefined 12 -11 44 44 WNW 14 22 30.30 1026 10 16 N/A
2:35 pm 14:35 Partly Cloudy 32 undefined 12 -11 44 44 WNW 15 24 30.30 1026 10 16 N/A
2:55 pm 14:55 Sunny 32 undefined 12 -11 44 44 WNW 10 17 30.27 1025 10 16 N/A
3:15 pm 15:15 Sunny 32 undefined 12 -11 44 44 NW 7 11 30.30 1026 10 16 N/A
3:35 pm 15:35 Sunny 32 undefined 12 -11 44 44 NNE 5 7 30.30 1026 10 16 N/A
3:55 pm 15:55 Partly Cloudy 32 undefined 12 -11 44 44 NNE 5 7 30.30 1026 10 16 N/A
4:15 pm 16:15 Partly Cloudy 30 -1 12 -11 47 47 NE 7 11 30.30 1026 10 16 N/A
4:35 pm 16:35 Sunny 30 -1 12 -11 47 47 ENE 5 7 30.30 1026 10 16 N/A
4:55 pm 16:55 Sunny 28 -2 12 -11 51 51 ESE 3 6 30.30 1026 10 16 N/A
5:15 pm 17:15 Clear 28 -2 12 -11 51 51 ENE 5 7 30.30 1026 10 16 N/A
5:35 pm 17:35 Clear 28 -2 12 -11 51 51 ENE 8 13 30.30 1026 10 16 N/A
5:55 pm 17:55 Clear 28 -2 12 -11 51 51 NNE 8 13 30.30 1026 10 16 N/A
6:15 pm 18:15 Clear 27 -3 14 -10 59 59 N 9 15 30.30 1026 10 16 N/A
6:35 pm 18:35 Clear 27 -3 14 -10 59 59 NE 8 13 30.33 1027 10 16 N/A
6:55 pm 18:55 Clear 27 -3 14 -10 59 59 NNE 8 13 30.33 1027 10 16 N/A
7:15 pm 19:15 Clear 27 -3 14 -10 59 59 NE 6 9 30.33 1027 10 16 N/A
7:35 pm 19:35 Clear 27 -3 12 -11 54 54 NNE 5 7 30.33 1027 10 16 N/A
7:55 pm 19:55 Clear 27 -3 12 -11 54 54 NNE 5 7 30.33 1027 10 16 N/A
8:15 pm 20:15 Clear 25 -4 12 -11 59 59 ENE 3 6 30.33 1027 10 16 N/A
8:35 pm 20:35 Clear 25 -4 12 -11 59 59 N N/A 30.33 1027 10 16 N/A
8:55 pm 20:55 Clear 23 -5 12 -11 63 63 N N/A 30.33 1027 10 16 N/A
9:15 pm 21:15 Clear 23 -5 12 -11 63 63 SSE 3 6 30.33 1027 10 16 N/A
9:35 pm 21:35 Partly Cloudy 21 -6 12 -11 68 68 N N/A 30.33 1027 10 16 N/A
9:55 pm 21:55 Mostly Cloudy 23 -5 14 -10 68 68 N N/A 30.33 1027 10 16 N/A
10:15 pm 22:15 Cloudy 21 -6 14 -10 74 74 N N/A 30.33 1027 10 16 N/A
10:35 pm 22:35 Cloudy 21 -6 14 -10 74 74 N N/A 30.33 1027 10 16 N/A
10:55 pm 22:55 Cloudy 23 -5 14 -10 68 68 N N/A 30.30 1026 10 16 N/A
11:15 pm 23:15 Cloudy 23 -5 14 -10 68 68 N N/A 30.30 1026 10 16 N/A
11:35 pm 23:35 Cloudy 23 -5 12 -11 63 63 N N/A 30.30 1026 10 16 N/A
11:55 pm 23:55 Cloudy 25 -4 14 -10 63 63 SE 3 6 30.27 1025 10 16 N/A

Powered by AerisWeather